Location: Helsinki
(60.1699°N, 24.9384°E)
Time: 15:15:13
(UTC+02:00)

Tiros 1 - Pass Details

Date: 02 October 2022
Orbit: 629 x 662 km, 48.4° (Epoch: 07 December)

Event Time Altitude Azimuth Distance (km) Brightness Sun altitude
Rises 05:50:23 0° 259° (WSW) 2,982 - -12.8°
Reaches altitude 10° 05:53:51 10° 233° (SW) 2,061 - -12.4°
Exits shadow 05:54:54 12° 221° (SW) 1,902 9.1 -12.3°
Maximum altitude 05:56:08 14° 204° (SSW) 1,828 9.1 -12.1°
Drops below altitude 10° 05:58:25 10° 175° (S) 2,048 9.6 -11.9°
Sets 06:01:50 0° 149° (SSE) 2,947 10.8 -11.4°
